Location: Coopersdale
(40.3556°N, 78.9372°W)
Time: 00:31:28
(UTC+00:00)

Tiros 1 - Pass Details

Date: 26 January 2021
Orbit: 630 x 664 km, 48.4° (Epoch: 06 March)

Event Time Altitude Azimuth Distance (km) Brightness Sun altitude
Rises 23:35:39 0° 266° (W) 2,930 12.4 -13.2°
Reaches altitude 10° 23:38:07 10° 274° (W) 2,018 11.0 -13.6°
Maximum altitude 23:42:28 39° 344° (NNW) 952 8.0 -14.4°
Enters shadow 23:45:19 19° 43° (NE) 1,500 8.6 -15.0°
